This demonstration page uses our WeatherBlox Daily Observations layout. Learn more.

Hourly Observations for February 27, 2019

Temp ( °F °C ) Dew Point ( °F °C ) Humidity (%) Winds ( mph kmh ) Pressure ( in mb ) Visibility ( mi km ) Precip ( " mm )
12:45 am 00:45 Cloudy with Light Snow 11 -11.7 6 -14.4 81 81 NNW 10 17 30.41 1030 5 8.0467 0 0.0254
12:54 am 00:54 Cloudy with Light Snow 11 -11.7 6 -14.4 81 81 NNW 12 19 30.37 1028 6 9.65604 0 0.0254
1:54 am 01:54 Cloudy with Light Snow 11 -11.7 6 -14.4 81 81 NNW 15 24 30.39 1029 6 9.65604 0 0.0254
2:33 am 02:33 Cloudy with Light Snow 10 -12.2 5 -15 80 80 NNW 14 22 30.45 1031 5 8.0467 0 0.0254
2:54 am 02:54 Cloudy with Light Snow 10 -12.2 5 -15 80 80 N 18 30 30.4 1029 4 6.43736 0 0.0254
3:54 am 03:54 Cloudy 10 -12.2 4 -15.6 76 76 N 18 30 30.39 1029 10 16.0934 0 0.0254
4:54 am 04:54 Cloudy 10 -12.2 3 -16.1 73 73 N 20 31 30.41 1030 10 16.0934 0 0
5:54 am 05:54 Cloudy 9 -12.8 2 -16.7 73 73 N 22 35 30.45 1031 9 14.48406 0 0
6:54 am 06:54 Cloudy 9 -12.8 2 -16.7 73 73 N 17 28 30.47 1032 10 16.0934 0 0
7:54 am 07:54 Cloudy 9 -12.8 2 -16.7 73 73 N 18 30 30.46 1032 10 16.0934 0 0
8:54 am 08:54 Cloudy 8 -13.3 1 -17.2 73 73 N 17 28 30.49 1033 8 12.87472 0 0
9:54 am 09:54 Cloudy 9 -12.8 1 -17.2 70 70 N 17 28 30.51 1033 9 14.48406 0 0.0254
10:20 am 10:20 Cloudy 10 -12.2 2 -16.7 69 69 N 16 26 30.55 1035 8 12.87472 0 0
10:54 am 10:54 Cloudy 9 -12.8 1 -17.2 70 70 N 15 24 30.5 1033 8 12.87472 0 0
11:42 am 11:42 Mostly Sunny 11 -11.7 2 -16.7 67 67 N 15 24 30.55 1035 10 16.0934 0 0
11:54 am 11:54 Sunny 11 -11.7 2 -16.7 67 67 NNW 16 26 30.5 1033 10 16.0934 0 0
12:54 pm 12:54 Sunny 12 -11.1 2 -16.7 64 64 N 20 31 30.48 1032 10 16.0934 0 0
1:54 pm 13:54 Sunny 13 -10.6 3 -16.1 64 64 N 16 26 30.47 1032 10 16.0934 0 0
2:54 pm 14:54 Sunny 13 -10.6 3 -16.1 64 64 N 15 24 30.47 1032 10 16.0934 0 0
3:54 pm 15:54 Sunny 13 -10.6 3 -16.1 64 64 N 16 26 30.47 1032 10 16.0934 0 0
4:54 pm 16:54 Sunny 12 -11.1 2 -16.7 64 64 NNE 16 26 30.45 1031 10 16.0934 0 0
5:54 pm 17:54 Sunny 10 -12.2 1 -17.2 67 67 N 10 17 30.44 1031 10 16.0934 0 0
6:54 pm 18:54 Clear 9 -12.8 1 -17.2 70 70 N 6 9 30.45 1031 10 16.0934 0 0
7:54 pm 19:54 Clear 8 -13.3 0 -17.8 69 69 N 8 13 30.45 1031 10 16.0934 0 0
8:54 pm 20:54 Clear 7 -13.9 0 -17.8 73 73 N 6 9 30.43 1031 10 16.0934 0 0
9:54 pm 21:54 Clear 6 -14.4 -1 -18.3 73 73 N 5 7 30.44 1031 10 16.0934 0 0
10:54 pm 22:54 Clear 4 -15.6 -1 -18.3 80 80 Calm 30.42 1030 10 16.0934 0 0
11:54 pm 23:54 Clear 5 -15 -1 -18.3 76 76 Calm 30.4 1030 10 16.0934 0 0

Powered by AerisWeather